Amsterdam, Netherlands

6:14 PM CEST on October 23, 2019 (GMT +0200)
Schiphol

Weather History for EHAM - August, 2019

Change the Weather History Date:

Tuesday, August 13, 2019

  Actual Average Record
Temperature  
Mean Temperature 58 °F -  
Max Temperature 66 °F 67 °F 89 °F (1997)
Min Temperature 50 °F 53 °F 50 °F (2006)
Degree Days  
Heating Degree Days 7    
Growing Degree Days 8 (Base 50)    
Moisture  
Dew Point 51 °F    
Average Humidity 75    
Maximum Humidity 94    
Minimum Humidity 47    
Precipitation  
Precipitation 0.08 in - - ()
Sea Level Pressure  
Sea Level Pressure 30.00 in    
Wind  
Wind Speed 7 mph ()    
Max Wind Speed 20 mph    
Max Gust Speed -    
Visibility 7.2 miles    
Events Rain , Thunderstorm    
Averages and records for this station are not official NWS values.
T = Trace of Precipitation, MM = Missing Value Source: Averaged Metar Reports

Daily Weather History Graph

Daily Weather History Graph

Search for Another Location

Airport or City:

Astronomy

Aug. 13, 2019 Rise Set
Actual Time 6:20 AM CEST 9:10 PM CEST
Civil Twilight 5:41 AM CEST 9:49 PM CEST
Nautical Twilight 4:50 AM CEST 10:39 PM CEST
Astronomical Twilight 3:46 AM CEST 11:41 PM CEST
Moon 8:30 PM CEST (8/13) 3:49 AM CEST (8/13)
Length of Visible Light 16h 08m
Length of Day
14h 50m
Waxing Gibbous, 96% of the Moon is Illuminated
Aug 13
Waxing Gibbous
Aug 15
Full
Aug 23
Last Quarter
Aug 30
New
Sep 6
First Quarter

Hourly Weather History & Observations

Time (CEST) Temp. Dew Point Humidity Pressure Visibility Wind Dir Wind Speed Gust Speed Precip Events Conditions
12:00 AM 58 °F 53 °F 78% 29.97 in 22 mi NNW 4.5 mph - - Rain Drizzle
12:25 AM 57.2 °F 53.6 °F 88% 29.95 in 6.2 mi Variable 2.3 mph - N/A Rain Light Rain Showers
12:55 AM 57.2 °F 53.6 °F 88% 29.95 in 6.2 mi East 1.2 mph - N/A   Scattered Clouds
1:00 AM 58 °F 53 °F 77% 29.97 in 19 mi Calm Calm - - Rain Light Rain
1:25 AM 57.2 °F 53.6 °F 88% 29.95 in 5.6 mi WSW 5.8 mph - N/A Rain Light Rain Showers
1:55 AM 55.4 °F 53.6 °F 94% 29.98 in 6.2 mi West 5.8 mph - N/A Rain Light Rain Showers
2:00 AM 56 °F 54 °F 89% 29.97 in 11 mi 2.2 mph - - Rain Heavy Rain
2:25 AM 55.4 °F 53.6 °F 94% 29.95 in 6.2 mi South 3.5 mph - N/A   Partly Cloudy
2:55 AM 55.4 °F 53.6 °F 94% 29.95 in - SSW 3.5 mph - N/A   Clear
3:00 AM 56 °F 54 °F 91% 29.97 in 14 mi South 4.5 mph - - Rain Light Rain
3:25 AM 55.4 °F 53.6 °F 94% 29.95 in 6.2 mi SSW 4.6 mph - N/A   Partly Cloudy
3:55 AM 57.2 °F 53.6 °F 88% 29.98 in 3.1 mi West 12.7 mph - N/A Rain Rain Showers
4:25 AM 53.6 °F 50.0 °F 88% 29.98 in 6.2 mi WNW 9.2 mph - N/A Rain Light Rain
4:55 AM 53.6 °F 50.0 °F 88% 29.98 in - Variable 1.2 mph - N/A   Clear
5:00 AM 53 °F 50 °F 84% 29.98 in 25 mi WNW 2.2 mph - - Rain Rain
5:25 AM 51.8 °F 50.0 °F 94% 29.95 in - Variable 2.3 mph - N/A   Clear
5:55 AM 51.8 °F 50.0 °F 94% 29.95 in 6.2 mi South 5.8 mph - N/A   Partly Cloudy
6:00 AM 52 °F 50 °F 91% 29.97 in 19 mi South 4.5 mph - -   Partly Cloudy
6:25 AM 53.6 °F 51.8 °F 94% 29.98 in 6.2 mi SW 10.4 mph - N/A Rain Light Rain Showers
6:55 AM 55.4 °F 48.2 °F 77% 29.98 in 6.2 mi WSW 9.2 mph - N/A   Partly Cloudy
7:00 AM 55 °F 50 °F 78% 29.98 in 25 mi SW 8.9 mph - - Thunderstorm Light Thunderstorm
7:25 AM 53.6 °F 51.8 °F 94% 29.98 in 6.2 mi SSW 6.9 mph - N/A   Partly Cloudy
7:55 AM 57.2 °F 51.8 °F 82% 29.98 in 6.2 mi SSW 9.2 mph - N/A   Partly Cloudy
8:00 AM 57 °F 53 °F 81% 29.99 in 19 mi SSW 8.9 mph - -   Partly Cloudy
8:25 AM 59.0 °F 53.6 °F 82% 29.98 in 6.2 mi SSW 10.4 mph - N/A   Partly Cloudy
8:55 AM 60.8 °F 53.6 °F 77% 29.98 in 6.2 mi WSW 6.9 mph - N/A   Partly Cloudy
9:00 AM 61 °F 52 °F 64% 30.00 in 22 mi West 8.9 mph - -   Scattered Clouds
9:25 AM 62.6 °F 51.8 °F 68% 30.01 in 6.2 mi North 5.8 mph - N/A   Partly Cloudy
9:55 AM 62.6 °F 51.8 °F 68% 30.01 in 6.2 mi West 10.4 mph - N/A   Partly Cloudy
10:25 AM 62.6 °F 50.0 °F 63% 30.01 in 6.2 mi West 12.7 mph - N/A   Partly Cloudy
10:55 AM 64.4 °F 50.0 °F 59% 30.01 in 6.2 mi West 15.0 mph - N/A   Partly Cloudy
11:00 AM 64 °F 49 °F 47% 30.02 in 25 mi West 15.7 mph - -   Partly Cloudy
11:25 AM 64.4 °F 48.2 °F 56% 30.01 in 6.2 mi West 16.1 mph - N/A   Scattered Clouds
11:55 AM 64.4 °F 50.0 °F 59% 30.01 in 6.2 mi West 17.3 mph - N/A   Partly Cloudy
12:25 PM 64.4 °F 46.4 °F 52% 30.01 in 6.2 mi West 15.0 mph - N/A   Partly Cloudy
12:55 PM 64.4 °F 48.2 °F 56% 30.01 in 6.2 mi WSW 13.8 mph - N/A   Scattered Clouds
1:25 PM 64.4 °F 48.2 °F 56% 30.01 in 5.6 mi West 12.7 mph - N/A   Scattered Clouds
1:55 PM 55.4 °F 51.8 °F 88% 30.01 in 6.2 mi SSW 19.6 mph - N/A Rain Light Rain Showers
2:00 PM 56 °F 52 °F 83% 30.04 in 7 mi SSW 17.9 mph - - Rain Light Rain Showers
2:25 PM 60.8 °F 53.6 °F 77% 30.01 in 6.2 mi South 10.4 mph - N/A   Scattered Clouds
2:55 PM 60.8 °F 53.6 °F 77% 30.01 in 6.2 mi South 12.7 mph - N/A Rain Light Rain Showers
3:00 PM 60 °F 53 °F 70% 30.02 in 7 mi South 8.9 mph - - Rain Rain Showers
3:25 PM 62.6 °F 53.6 °F 72% 30.01 in 6.2 mi SSW 8.1 mph - N/A Rain , Thunderstorm Light Rain Showers
3:55 PM 64.4 °F 53.6 °F 68% 30.01 in 6.2 mi WSW 17.3 mph - N/A Thunderstorm Scattered Clouds
4:00 PM 65 °F 53 °F 56% 30.01 in 22 mi WSW 17.9 mph - - Rain Rain
4:25 PM 64.4 °F 51.8 °F 64% 30.01 in 6.2 mi West 19.6 mph - N/A   Scattered Clouds
4:55 PM 64.4 °F 50.0 °F 59% 30.01 in 6.2 mi West 18.4 mph - N/A   Scattered Clouds
5:00 PM 65 °F 52 °F 53% 30.01 in 25 mi West 20.1 mph - -   Partly Cloudy
5:25 PM 64.4 °F 51.8 °F 64% 30.01 in 6.2 mi West 17.3 mph - N/A   Scattered Clouds
5:55 PM 62.6 °F 51.8 °F 68% 30.01 in 6.2 mi West 16.1 mph - N/A   Scattered Clouds
6:00 PM 65 °F 51 °F 50% 30.02 in 2 mi West 13.4 mph - -   Light Haze
6:25 PM 62.6 °F 50.0 °F 63% 30.01 in 6.2 mi West 15.0 mph - N/A   Scattered Clouds
6:55 PM 62.6 °F 51.8 °F 68% 30.01 in 6.2 mi West 12.7 mph - N/A Rain , Thunderstorm Light Rain Showers
7:00 PM 61 °F 50 °F 58% 30.03 in 28 mi NW 13.4 mph - -   Partly Cloudy
7:25 PM 60.8 °F 48.2 °F 63% 30.01 in 6.2 mi WNW 11.5 mph - N/A Rain Light Rain Showers
7:55 PM 59.0 °F 50.0 °F 72% 30.01 in 6.2 mi West 10.4 mph - N/A Rain , Thunderstorm Light Rain Showers
8:00 PM 58 °F 51 °F 72% 30.04 in 25 mi West 11.2 mph - - Rain , Thunderstorm Light Thunderstorms and Rain
8:25 PM 57.2 °F 48.2 °F 72% 30.04 in 6.2 mi West 12.7 mph - N/A Rain , Thunderstorm Light Thunderstorms and Rain
8:55 PM 55.4 °F 48.2 °F 77% 30.04 in 6.2 mi WSW 6.9 mph - N/A   Partly Cloudy
9:00 PM 55 °F 47 °F 68% 30.04 in 28 mi WSW 6.7 mph - - Thunderstorm Light Thunderstorm
9:25 PM 55.4 °F 46.4 °F 72% 30.04 in 6.2 mi WSW 5.8 mph - N/A   Partly Cloudy
9:55 PM 57.2 °F 48.2 °F 72% 30.04 in 6.2 mi WSW 6.9 mph - N/A   Partly Cloudy
10:00 PM 56 °F 50 °F 73% 30.05 in 14 mi WSW 6.7 mph - -   Partly Cloudy
10:25 PM 55.4 °F 50.0 °F 82% 30.04 in 6.2 mi SW 4.6 mph - N/A   Partly Cloudy
10:55 PM 53.6 °F 50.0 °F 88% 30.04 in 6.2 mi SW 8.1 mph - N/A   Partly Cloudy
11:00 PM 54 °F 50 °F 82% 30.05 in 28 mi SSW 6.7 mph - -   Partly Cloudy
11:25 PM 53.6 °F 51.8 °F 94% 30.04 in - SSW 6.9 mph - N/A   Clear
11:55 PM 53.6 °F 50.0 °F 88% 30.04 in - South 8.1 mph - N/A   Clear